Regional Weather Roundup
Issued by NWS Jackson, KY

Home | Current Version | Previous Version | Graphics & Text | Print | Product List | Glossary Off
Versions: 1 2 3 4 5 6 7 8 9 10 11 12 13 14 15 16 17 18 19 20 21 22 23 24 25 26 27 28 29 30 31 32 33 34 35 36 37 38 39 40 41 42 43 44 45 46 47 48 49 50

000
ASUS43 KJKL 020011
RWRJKL

EAST KENTUCKY HOURLY WEATHER ROUNDUP
NATIONAL WEATHER SERVICE JACKSON KY
800 PM EDT MON SEP 01 2014

NOTE: "FAIR" INDICATES FEW OR NO CLOUDS BELOW 12,000 FEET WITH
NO SIGNIFICANT WEATHER AND/OR OBSTRUCTIONS TO VISIBILITY.

* THESE REPORTS ARE NOT UNDER NWS QUALITY CONTROL AND MAY NOT
  REPORT WEATHER SUCH AS PRECIPITATION AND FOG.

KYZ079-080-083-085-087-088-110-112-115-119-120-020100
...EASTERN KENTUCKY...

CITY           SKY/WX    TMP DP  RH WIND       PRES   REMARKS
JACKSON        MOCLDY    81  66  60 CALM      30.03S
6HR MIN TEMP:  80; 6HR MAX TEMP:  87;

LONDON         PTCLDY    83  67  58 SW5       30.03S
6HR MIN TEMP:  83; 6HR MAX TEMP:  91;

SOMERSET*      CLOUDY    81  63  54 CALM      30.03R
MONTICELLO*    PTCLDY    78  71  79 CALM      30.04R
6HR MIN TEMP:  78; 6HR MAX TEMP:  90;

MIDDLESBORO*   PTCLDY    80  71  74 SW3       30.05S
6HR MIN TEMP:  78; 6HR MAX TEMP:  88; 6HR PCP:  0.01;

HARLAN APT*    CLEAR     79  68  69 MISG      30.06S
BLACK MTN*       N/A     68  66  94 S7          N/A
PIKEVILLE APT* CLEAR     81  68  65 CALM      30.04S
BIG SANDY*     CLEAR     81  70  69 CALM      30.02S
6HR MIN TEMP:  81; 6HR MAX TEMP:  87;

MOREHEAD APT*  MOCLDY    77  73  88 S3        30.02R
$$

KYZ035-036-041-042-044-050-067-078-099-020100
...CENTRAL KENTUCKY...

CITY           SKY/WX    TMP DP  RH WIND       PRES   REMARKS
MT STERLING*   MOCLDY    79  72  78 W6        30.02R
FLEMING/MASON* MOCLDY    79  72  78 SW6       29.99S
DANVILLE*      CLOUDY    77  73  88 CALM      30.02R
RICHMOND*      CLOUDY    81  68  65 SW5       30.00R
LEXINGTON      CLOUDY    80  72  76 SW7       30.00R
6HR MIN TEMP:  77; 6HR MAX TEMP:  86; 6HR PCP:  0.04;

FRANKFORT      MOCLDY    80  72  76 SW6       29.97R
6HR MIN TEMP:  80; 6HR MAX TEMP:  85;

$$

KYZ091>093-OHZ055-061-077-WVZ005-015-034-035-042-020100
...SOUTHERN OHIO/WEST VIRGINIA...

CITY           SKY/WX    TMP DP  RH WIND       PRES   REMARKS
COVINGTON      CLOUDY    81  71  71 SW8       29.94S
COLUMBUS       MOCLDY    81  68  64 SW13      29.92R
DAYTON         MOCLDY    81  70  69 SW16      29.92S
WILMINGTON     MOCLDY    79  70  74 SW12      29.93S
HUNTINGTON     PTCLDY    73  71  93 SE3       29.99S
CHARLESTON     CLOUDY    73  71  93 CALM      30.01F
BECKLEY        MOCLDY    76  66  71 S5        30.12S
BLUEFIELD      PTCLDY    76  62  62 SW3       30.16R
$$

VAZ002-007-008-TNZ017-027-036-066-071-020100
...SOUTHWEST VIRGINIA/EAST TENNESSEE...

CITY           SKY/WX    TMP DP  RH WIND       PRES   REMARKS
WISE*          MOCLDY    75  63  64 S6        30.16R
JONESVILLE*      N/A     82  70  65 CALM      30.09R
ABINGDON*      CLEAR     78  69  73 CALM      30.12R
BRISTOL        PTCLDY    83  64  52 W5        30.08R
KNOXVILLE      PTCLDY    82  69  64 SW9       30.04R
OAK RIDGE      PTCLDY    85  71  63 S3        30.06R HX  90
CROSSVILLE     PTCLDY    79  66  64 SW3       30.10R
NASHVILLE      PTCLDY    86  67  52 SW8       29.99S
$$

...KEY TO REMARKS...
VSB - VISIBILITY IN MILES
WCI - WIND CHILL INDEX
HX  - HEAT INDEX

$$


USA.gov is the U.S. government's official web portal to all federal, state and local government web resources and services.